| time (UTC) | temp F | wind direction | speed MPH | gust MPH | rain 1hr in | rain 24hr in | rain mn in | humidity % | barometer mb |
| 20260506013800 | 71 | 122 | 1.0 | 5.0 | 0.00 | 0.01 | 0.01 | 46 | 1006.8 |
| 20260506013257 | 71 | 136 | 0.0 | 1.0 | 0.00 | 0.01 | 0.01 | 46 | 1006.9 |
| 20260506012754 | 71 | 129 | 0.0 | 2.0 | 0.00 | 0.01 | 0.01 | 46 | 1006.9 |
| 20260506012251 | 71 | 105 | 0.0 | 2.0 | 0.00 | 0.01 | 0.01 | 46 | 1006.9 |
| 20260506011748 | 71 | 42 | 1.0 | 3.0 | 0.00 | 0.01 | 0.01 | 46 | 1006.6 |
| 20260506011244 | 70 | 154 | 1.0 | 2.0 | 0.00 | 0.01 | 0.01 | 46 | 1006.5 |
| 20260506010743 | 71 | 133 | 1.0 | 6.0 | 0.00 | 0.01 | 0.01 | 46 | 1006.8 |
| 20260506010239 | 71 | 141 | 1.0 | 2.0 | 0.00 | 0.01 | 0.01 | 46 | 1006.6 |
| 20260506005737 | 71 | 181 | 1.0 | 2.0 | 0.00 | 0.01 | 0.01 | 45 | 1006.7 |
| 20260506005233 | 71 | 172 | 3.0 | 5.0 | 0.00 | 0.01 | 0.01 | 44 | 1006.6 |
| 20260506004729 | 71 | 182 | 1.0 | 3.0 | 0.00 | 0.01 | 0.01 | 46 | 1006.6 |
| 20260506004227 | 72 | 101 | 1.0 | 2.0 | 0.00 | 0.01 | 0.01 | 44 | 1006.5 |
| 20260506003723 | 72 | 110 | 0.0 | 2.0 | 0.00 | 0.01 | 0.01 | 44 | 1006.4 |
| 20260506003220 | 73 | 186 | 2.0 | 3.0 | 0.00 | 0.01 | 0.01 | 43 | 1006.5 |
| 20260506002715 | 73 | 318 | 1.0 | 3.0 | 0.00 | 0.01 | 0.01 | 43 | 1006.4 |
| 20260506002212 | 73 | 77 | 3.0 | 5.0 | 0.00 | 0.01 | 0.01 | 42 | 1006.3 |
| 20260506001708 | 73 | 13 | 2.0 | 6.0 | 0.00 | 0.01 | 0.01 | 42 | 1006.2 |
| 20260506001205 | 73 | 97 | 1.0 | 7.0 | 0.00 | 0.01 | 0.01 | 43 | 1006.3 |
| 20260506000702 | 73 | 144 | 0.0 | 5.0 | 0.00 | 0.01 | 0.01 | 43 | 1006.2 |
| 20260506000200 | 73 | 93 | 1.0 | 2.0 | 0.00 | 0.01 | 0.01 | 43 | 1006.2 |
| 20260505235657 | 73 | 120 | 0.0 | 3.0 | 0.00 | 0.01 | 0.01 | 42 | 1006.1 |
| 20260505235155 | 73 | 211 | 2.0 | 5.0 | 0.00 | 0.01 | 0.01 | 43 | 1006.1 |
| 20260505234651 | 74 | 167 | 1.0 | 5.0 | 0.00 | 0.01 | 0.01 | 42 | 1006.1 |
| 20260505234149 | 74 | 296 | 2.0 | 3.0 | 0.00 | 0.01 | 0.01 | 43 | 1005.9 |
| 20260505233645 | 73 | 103 | 0.0 | 3.0 | 0.00 | 0.01 | 0.01 | 43 | 1006.1 |
| 20260505233143 | 74 | 66 | 1.0 | 1.0 | 0.00 | 0.01 | 0.01 | 43 | 1006.0 |
| 20260505232640 | 74 | 168 | 1.0 | 6.0 | 0.00 | 0.01 | 0.01 | 43 | 1006.2 |
| 20260505232138 | 74 | 149 | 0.0 | 5.0 | 0.00 | 0.01 | 0.01 | 43 | 1006.0 |
| 20260505231634 | 74 | 115 | 2.0 | 2.0 | 0.00 | 0.01 | 0.01 | 43 | 1006.1 |
| 20260505231133 | 74 | 114 | 0.0 | 2.0 | 0.00 | 0.01 | 0.01 | 43 | 1005.7 |
| 20260505230631 | 74 | 147 | 0.0 | 2.0 | 0.00 | 0.01 | 0.01 | 42 | 1005.9 |
| 20260505230127 | 74 | 136 | 0.0 | 1.0 | 0.00 | 0.01 | 0.01 | 42 | 1005.8 |
| 20260505225623 | 75 | 114 | 0.0 | 2.0 | 0.00 | 0.01 | 0.01 | 42 | 1005.6 |
| 20260505225120 | 74 | 156 | 2.0 | 5.0 | 0.00 | 0.01 | 0.01 | 41 | 1005.8 |
| 20260505224616 | 74 | 23 | 4.0 | 7.0 | 0.00 | 0.01 | 0.01 | 42 | 1005.6 |
| 20260505224114 | 75 | 114 | 1.0 | 3.0 | 0.00 | 0.01 | 0.01 | 41 | 1005.7 |
| 20260505223611 | 75 | 159 | 2.0 | 3.0 | 0.00 | 0.01 | 0.01 | 40 | 1005.7 |
| 20260505223107 | 75 | 174 | 1.0 | 6.0 | 0.00 | 0.01 | 0.01 | 41 | 1005.7 |
| 20260505222604 | 75 | 150 | 1.0 | 3.0 | 0.00 | 0.01 | 0.01 | 40 | 1005.6 |
| 20260505222100 | 75 | 116 | 2.0 | 5.0 | 0.00 | 0.01 | 0.01 | 40 | 1005.5 |
| 20260505221557 | 76 | 99 | 0.0 | 1.0 | 0.00 | 0.01 | 0.01 | 39 | 1005.6 |
| 20260505221053 | 76 | 209 | 2.0 | 5.0 | 0.00 | 0.01 | 0.01 | 39 | 1005.5 |
| 20260505220551 | 76 | 189 | 3.0 | 6.0 | 0.00 | 0.01 | 0.01 | 38 | 1005.6 |
| 20260505220048 | 76 | 122 | 4.0 | 5.0 | 0.00 | 0.01 | 0.01 | 38 | 1005.4 |
| 20260505215546 | 76 | 179 | 1.0 | 3.0 | 0.00 | 0.01 | 0.01 | 38 | 1005.4 |
| 20260505215044 | 76 | 32 | 3.0 | 8.0 | 0.00 | 0.01 | 0.01 | 38 | 1005.4 |
| 20260505214542 | 76 | 133 | 0.0 | 5.0 | 0.00 | 0.01 | 0.01 | 39 | 1005.3 |
| 20260505214038 | 77 | 157 | 1.0 | 6.0 | 0.00 | 0.01 | 0.01 | 38 | 1005.3 |
| 20260505213536 | 77 | 78 | 2.0 | 7.0 | 0.00 | 0.01 | 0.01 | 38 | 1005.2 |
| 20260505213032 | 77 | 47 | 2.0 | 3.0 | 0.00 | 0.01 | 0.01 | 38 | 1005.1 |
| 20260505212529 | 77 | 104 | 1.0 | 7.0 | 0.00 | 0.01 | 0.01 | 38 | 1005.3 |
| 20260505212026 | 78 | 161 | 3.0 | 7.0 | 0.00 | 0.01 | 0.01 | 37 | 1005.1 |
| 20260505211523 | 78 | 147 | 2.0 | 7.0 | 0.00 | 0.01 | 0.01 | 37 | 1005.1 |
| 20260505211020 | 78 | 118 | 1.0 | 6.0 | 0.00 | 0.01 | 0.01 | 38 | 1005.2 |
| 20260505210516 | 78 | 219 | 3.0 | 7.0 | 0.00 | 0.01 | 0.01 | 38 | 1004.9 |
| 20260505210014 | 79 | 152 | 1.0 | 7.0 | 0.00 | 0.01 | 0.01 | 37 | 1005.0 |
| 20260505205512 | 79 | 319 | 2.0 | 6.0 | 0.00 | 0.01 | 0.01 | 37 | 1005.1 |
| 20260505205009 | 80 | 157 | 4.0 | 6.0 | 0.00 | 0.01 | 0.01 | 36 | 1005.1 |
| 20260505204506 | 81 | 109 | 3.0 | 6.0 | 0.00 | 0.01 | 0.01 | 36 | 1004.9 |
| 20260505204003 | 82 | 56 | 1.0 | 6.0 | 0.00 | 0.01 | 0.01 | 32 | 1005.0 |
| 20260505203459 | 82 | 359 | 5.0 | 10.0 | 0.00 | 0.01 | 0.01 | 30 | 1005.0 |
| 20260505202956 | 82 | 312 | 3.0 | 7.0 | 0.00 | 0.01 | 0.01 | 28 | 1004.9 |
| 20260505202453 | 79 | 199 | 3.0 | 7.0 | 0.00 | 0.01 | 0.01 | 30 | 1004.9 |
| 20260505201949 | 79 | 206 | 3.0 | 6.0 | 0.00 | 0.01 | 0.01 | 30 | 1004.9 |
| 20260505201446 | 80 | 306 | 7.0 | 13.0 | 0.00 | 0.01 | 0.01 | 29 | 1005.1 |
| 20260505200943 | 80 | 169 | 5.0 | 7.0 | 0.00 | 0.01 | 0.01 | 30 | 1005.1 |
| 20260505200441 | 81 | 343 | 3.0 | 9.0 | 0.00 | 0.01 | 0.01 | 29 | 1005.0 |
| 20260505195936 | 81 | 165 | 3.0 | 9.0 | 0.00 | 0.01 | 0.01 | 29 | 1005.4 |
| 20260505195434 | 80 | 181 | 3.0 | 11.0 | 0.00 | 0.01 | 0.01 | 30 | 1005.3 |
| 20260505194931 | 81 | 148 | 5.0 | 8.0 | 0.00 | 0.01 | 0.01 | 28 | 1005.6 |
| 20260505194429 | 81 | 227 | 3.0 | 10.0 | 0.00 | 0.01 | 0.01 | 31 | 1005.6 |
| 20260505193928 | 81 | 197 | 2.0 | 9.0 | 0.00 | 0.01 | 0.01 | 30 | 1005.6 |
| 20260505193426 | 80 | 102 | 5.0 | 8.0 | 0.00 | 0.01 | 0.01 | 30 | 1005.5 |
| 20260505192924 | 80 | 117 | 6.0 | 9.0 | 0.00 | 0.01 | 0.01 | 29 | 1005.6 |
| 20260505192422 | 81 | 73 | 2.0 | 9.0 | 0.00 | 0.01 | 0.01 | 27 | 1005.8 |
| 20260505191919 | 82 | 172 | 5.0 | 7.0 | 0.00 | 0.01 | 0.01 | 26 | 1005.8 |
| 20260505191418 | 82 | 240 | 3.0 | 10.0 | 0.00 | 0.01 | 0.01 | 26 | 1005.8 |
| 20260505190914 | 82 | 321 | 3.0 | 10.0 | 0.00 | 0.01 | 0.01 | 27 | 1005.6 |
| 20260505190410 | 82 | 199 | 3.0 | 11.0 | 0.00 | 0.01 | 0.01 | 28 | 1005.8 |
| 20260505185905 | 81 | 171 | 1.0 | 6.0 | 0.00 | 0.01 | 0.01 | 28 | 1005.8 |
| 20260505185403 | 82 | 269 | 2.0 | 8.0 | 0.00 | 0.01 | 0.01 | 31 | 1005.9 |
| 20260505184858 | 82 | 4 | 4.0 | 5.0 | 0.00 | 0.01 | 0.01 | 31 | 1006.0 |
| 20260505184355 | 82 | 188 | 3.0 | 6.0 | 0.00 | 0.01 | 0.01 | 31 | 1005.6 |
| 20260505183852 | 82 | 266 | 4.0 | 8.0 | 0.00 | 0.01 | 0.01 | 34 | 1005.9 |
| 20260505183349 | 82 | 239 | 2.0 | 11.0 | 0.00 | 0.01 | 0.01 | 31 | 1006.0 |
| 20260505182846 | 81 | 206 | 4.0 | 8.0 | 0.00 | 0.01 | 0.01 | 33 | 1006.1 |
| 20260505182343 | 80 | 294 | 2.0 | 3.0 | 0.00 | 0.01 | 0.01 | 34 | 1006.1 |
| 20260505181840 | 81 | 178 | 2.0 | 8.0 | 0.00 | 0.01 | 0.01 | 34 | 1006.3 |
| 20260505181337 | 81 | 190 | 1.0 | 3.0 | 0.00 | 0.01 | 0.01 | 36 | 1006.2 |
| 20260505180833 | 80 | 113 | 2.0 | 6.0 | 0.00 | 0.01 | 0.01 | 36 | 1006.5 |
| 20260505180330 | 81 | 306 | 2.0 | 5.0 | 0.00 | 0.01 | 0.01 | 38 | 1006.5 |
| 20260505175826 | 81 | 231 | 3.0 | 10.0 | 0.00 | 0.01 | 0.01 | 36 | 1006.5 |
| 20260505175323 | 80 | 135 | 2.0 | 7.0 | 0.00 | 0.01 | 0.01 | 36 | 1006.5 |
| 20260505174819 | 81 | 121 | 2.0 | 7.0 | 0.00 | 0.01 | 0.01 | 34 | 1006.9 |
| 20260505174317 | 80 | 352 | 5.0 | 8.0 | 0.00 | 0.01 | 0.01 | 37 | 1006.6 |
| 20260505173813 | 79 | 337 | 5.0 | 9.0 | 0.00 | 0.01 | 0.01 | 35 | 1006.7 |
| 20260505173309 | 79 | 86 | 7.0 | 13.0 | 0.00 | 0.01 | 0.01 | 37 | 1006.7 |
| 20260505172807 | 79 | 243 | 2.0 | 5.0 | 0.00 | 0.01 | 0.01 | 38 | 1006.7 |
| 20260505172306 | 79 | 253 | 6.0 | 8.0 | 0.00 | 0.01 | 0.01 | 39 | 1006.8 |
| 20260505171758 | 79 | 83 | 3.0 | 13.0 | 0.00 | 0.01 | 0.01 | 40 | 1006.7 |
| 20260505171255 | 79 | 298 | 5.0 | 8.0 | 0.00 | 0.01 | 0.01 | 39 | 1006.7 |
| 20260505170752 | 79 | 240 | 3.0 | 7.0 | 0.00 | 0.01 | 0.01 | 38 | 1006.8 |
| 20260505170249 | 79 | 274 | 2.0 | 5.0 | 0.00 | 0.01 | 0.01 | 41 | 1006.9 |
| 20260505165744 | 79 | 120 | 2.0 | 6.0 | 0.00 | 0.01 | 0.01 | 42 | 1006.9 |
| 20260505165240 | 79 | 147 | 3.0 | 5.0 | 0.00 | 0.01 | 0.01 | 42 | 1007.0 |
| 20260505164736 | 78 | 128 | 3.0 | 5.0 | 0.00 | 0.01 | 0.01 | 41 | 1006.9 |
| 20260505164233 | 78 | 355 | 1.0 | 3.0 | 0.00 | 0.01 | 0.01 | 45 | 1007.3 |
| 20260505163731 | 78 | 62 | 2.0 | 3.0 | 0.00 | 0.01 | 0.01 | 41 | 1007.4 |
| 20260505163230 | 78 | 166 | 3.0 | 7.0 | 0.00 | 0.01 | 0.01 | 42 | 1007.4 |
| 20260505162727 | 77 | 129 | 1.0 | 3.0 | 0.00 | 0.01 | 0.01 | 49 | 1007.5 |
| 20260505162224 | 77 | 60 | 3.0 | 6.0 | 0.00 | 0.01 | 0.01 | 43 | 1007.7 |
| 20260505161720 | 77 | 181 | 3.0 | 3.0 | 0.00 | 0.01 | 0.01 | 43 | 1007.6 |
| 20260505161218 | 76 | 138 | 1.0 | 7.0 | 0.00 | 0.01 | 0.01 | 45 | 1007.5 |
| 20260505160715 | 76 | 205 | 5.0 | 7.0 | 0.00 | 0.01 | 0.01 | 44 | 1007.6 |
| 20260505160213 | 75 | 320 | 4.0 | 8.0 | 0.00 | 0.01 | 0.01 | 48 | 1007.8 |
| 20260505153152 | 74 | 229 | 4.0 | 10.0 | 0.00 | 0.01 | 0.01 | 48 | 1007.8 |
| 20260505152649 | 73 | 187 | 2.0 | 3.0 | 0.00 | 0.01 | 0.01 | 51 | 1008.2 |
| 20260505152145 | 73 | 204 | 2.0 | 6.0 | 0.00 | 0.01 | 0.01 | 49 | 1008.2 |
| 20260505151640 | 73 | 65 | 3.0 | 6.0 | 0.00 | 0.01 | 0.01 | 49 | 1008.2 |
| 20260505151138 | 72 | 117 | 0.0 | 2.0 | 0.00 | 0.01 | 0.01 | 53 | 1008.1 |
| 20260505150633 | 72 | 178 | 3.0 | 3.0 | 0.00 | 0.01 | 0.01 | 51 | 1008.2 |
| 20260505150131 | 72 | 161 | 1.0 | 5.0 | 0.00 | 0.01 | 0.01 | 51 | 1008.2 |
| 20260505140559 | 67 | 198 | 1.0 | 6.0 | 0.00 | 0.01 | 0.01 | 61 | 1008.6 |
| 20260505125013 | 62 | 106 | 0.0 | 2.0 | 0.00 | 0.01 | 0.01 | 72 | 1008.4 |
| 20260505124509 | 61 | 145 | 0.0 | 2.0 | 0.00 | 0.01 | 0.01 | 74 | 1008.5 |
| 20260505124006 | 60 | 352 | 3.0 | 3.0 | 0.00 | 0.01 | 0.01 | 74 | 1008.4 |
| 20260505123503 | 60 | 110 | 0.0 | 2.0 | 0.00 | 0.01 | 0.01 | 75 | 1008.5 |
| 20260505122958 | 60 | 96 | 1.0 | 2.0 | 0.00 | 0.01 | 0.01 | 75 | 1008.4 |
| 20260505122456 | 60 | 108 | 0.0 | 1.0 | 0.00 | 0.01 | 0.01 | 76 | 1008.5 |
| 20260505121952 | 59 | 116 | 1.0 | 3.0 | 0.00 | 0.01 | 0.01 | 76 | 1008.4 |
| 20260505121449 | 59 | 171 | 1.0 | 1.0 | 0.00 | 0.01 | 0.01 | 77 | 1008.5 |
| 20260505120945 | 59 | 79 | 0.0 | 1.0 | 0.00 | 0.01 | 0.01 | 80 | 1008.5 |
| 20260505120442 | 58 | 99 | 1.0 | 2.0 | 0.00 | 0.01 | 0.01 | 80 | 1008.7 |
| 20260505115941 | 57 | 89 | 0.0 | 2.0 | 0.00 | 0.01 | 0.01 | 81 | 1008.7 |
| 20260505115438 | 57 | 100 | 0.0 | 2.0 | 0.00 | 0.01 | 0.01 | 81 | 1008.4 |
| 20260505114936 | 57 | 67 | 1.0 | 1.0 | 0.00 | 0.01 | 0.01 | 81 | 1008.3 |
| 20260505114431 | 56 | 112 | 0.0 | 1.0 | 0.00 | 0.01 | 0.01 | 82 | 1008.3 |
| 20260505113928 | 56 | 119 | 0.0 | 1.0 | 0.00 | 0.01 | 0.01 | 83 | 1008.2 |
| 20260505113425 | 55 | 133 | 0.0 | 1.0 | 0.00 | 0.01 | 0.01 | 82 | 1008.2 |
| 20260505112921 | 55 | 123 | 0.0 | 1.0 | 0.00 | 0.01 | 0.01 | 84 | 1008.0 |
| 20260505112419 | 55 | 112 | 0.0 | 0.0 | 0.00 | 0.01 | 0.01 | 85 | 1008.1 |
| 20260505111914 | 54 | 115 | 0.0 | 1.0 | 0.00 | 0.01 | 0.01 | 85 | 1008.1 |
| 20260505111409 | 54 | 115 | 0.0 | 1.0 | 0.00 | 0.01 | 0.01 | 87 | 1008.1 |
| 20260505110906 | 53 | 115 | 0.0 | 0.0 | 0.00 | 0.01 | 0.01 | 87 | 1008.1 |
| 20260505110403 | 53 | 115 | 0.0 | 1.0 | 0.00 | 0.01 | 0.01 | 88 | 1008.1 |
| 20260505101833 | 53 | 129 | 0.0 | 0.0 | 0.00 | 0.01 | 0.01 | 90 | 1007.5 |
| 20260505101328 | 53 | 128 | 0.0 | 0.0 | 0.00 | 0.01 | 0.01 | 89 | 1007.6 |
| 20260505100824 | 53 | 128 | 0.0 | 0.0 | 0.00 | 0.01 | 0.01 | 89 | 1007.4 |
| 20260505100321 | 53 | 128 | 0.0 | 1.0 | 0.00 | 0.01 | 0.01 | 89 | 1007.4 |
| 20260505095817 | 53 | 118 | 0.0 | 1.0 | 0.00 | 0.01 | 0.01 | 88 | 1007.5 |
| 20260505095315 | 53 | 119 | 0.0 | 1.0 | 0.00 | 0.01 | 0.01 | 87 | 1007.4 |
| 20260505094810 | 53 | 142 | 2.0 | 2.0 | 0.00 | 0.01 | 0.01 | 87 | 1007.6 |
| 20260505094307 | 54 | 126 | 1.0 | 2.0 | 0.05 | 0.01 | 0.01 | 84 | 1007.4 |
| 20260505093803 | 54 | 152 | 1.0 | 2.0 | 0.05 | 0.01 | 0.01 | 83 | 1007.5 |
| 20260505093301 | 54 | 99 | 1.0 | 3.0 | 0.00 | 0.00 | 0.00 | 78 | 1007.7 |
| 20260505092757 | 54 | 134 | 1.0 | 3.0 | 0.00 | 0.00 | 0.00 | 73 | 1008.3 |
| 20260505092256 | 54 | 106 | 0.0 | 1.0 | 0.00 | 0.00 | 0.00 | 72 | 1008.3 |
| 20260505091753 | 54 | 102 | 0.0 | 1.0 | 0.00 | 0.00 | 0.00 | 72 | 1008.2 |
| 20260505091251 | 55 | 89 | 1.0 | 2.0 | 0.00 | 0.00 | 0.00 | 69 | 1008.3 |
| 20260505090748 | 56 | 100 | 0.0 | 2.0 | 0.00 | 0.00 | 0.00 | 68 | 1007.7 |
| 20260505090246 | 54 | 90 | 1.0 | 2.0 | 0.00 | 0.00 | 0.00 | 70 | 1007.7 |
| 20260505085743 | 53 | 182 | 1.0 | 1.0 | 0.00 | 0.00 | 0.00 | 71 | 1007.8 |
| 20260505085241 | 54 | 96 | 0.0 | 1.0 | 0.00 | 0.00 | 0.00 | 70 | 1007.8 |
| 20260505084738 | 53 | 117 | 1.0 | 1.0 | 0.00 | 0.00 | 0.00 | 72 | 1007.7 |
| 20260505084238 | 52 | 133 | 0.0 | 0.0 | 0.00 | 0.00 | 0.00 | 72 | 1007.6 |
| 20260505083734 | 53 | 135 | 0.0 | 0.0 | 0.00 | 0.00 | 0.00 | 72 | 1007.4 |
| 20260505083230 | 53 | 139 | 0.0 | 1.0 | 0.00 | 0.00 | 0.00 | 71 | 1007.5 |
| 20260505082726 | 53 | 115 | 0.0 | 0.0 | 0.00 | 0.00 | 0.00 | 71 | 1007.3 |
| 20260505082224 | 53 | 120 | 0.0 | 0.0 | 0.00 | 0.00 | 0.00 | 71 | 1007.3 |
| 20260505081719 | 53 | 122 | 0.0 | 0.0 | 0.00 | 0.00 | 0.00 | 70 | 1007.3 |
| 20260505081217 | 53 | 120 | 0.0 | 1.0 | 0.00 | 0.00 | 0.00 | 70 | 1007.4 |
| 20260505080714 | 53 | 135 | 0.0 | 1.0 | 0.00 | 0.00 | 0.00 | 70 | 1007.3 |
| 20260505080210 | 53 | 123 | 0.0 | 0.0 | 0.00 | 0.00 | 0.00 | 70 | 1007.2 |
| 20260505075706 | 54 | 122 | 0.0 | 1.0 | 0.00 | 0.00 | 0.00 | 68 | 1007.4 |
| 20260505075203 | 53 | 130 | 0.0 | 1.0 | 0.00 | 0.00 | 0.00 | 69 | 1007.4 |
| 20260505074700 | 53 | 124 | 0.0 | 1.0 | 0.00 | 0.00 | 0.00 | 69 | 1007.3 |
| 20260505074157 | 53 | 112 | 0.0 | 1.0 | 0.00 | 0.00 | 0.00 | 69 | 1007.4 |
| 20260505073655 | 54 | 118 | 0.0 | 1.0 | 0.00 | 0.00 | 0.00 | 68 | 1007.5 |
| 20260505073153 | 54 | 132 | 0.0 | 1.0 | 0.00 | 0.00 | 0.00 | 66 | 1007.4 |
| 20260505072648 | 54 | 125 | 0.0 | 1.0 | 0.00 | 0.00 | 0.00 | 67 | 1007.6 |
| 20260505072145 | 55 | 103 | 1.0 | 1.0 | 0.00 | 0.00 | 0.00 | 66 | 1007.5 |
| 20260505071640 | 56 | 84 | 0.0 | 1.0 | 0.00 | 0.00 | 0.00 | 64 | 1007.2 |
| 20260505071138 | 56 | 124 | 0.0 | 2.0 | 0.00 | 0.00 | 0.00 | 64 | 1007.3 |
| 20260505070635 | 56 | 122 | 0.0 | 1.0 | 0.00 | 0.00 | 0.00 | 63 | 1007.4 |
| 20260505070132 | 56 | 161 | 1.0 | 5.0 | 0.00 | 0.00 | 0.00 | 62 | 1007.2 |
| 20260505065627 | 56 | 130 | 1.0 | 2.0 | 0.00 | 0.00 | 0.00 | 63 | 1007.3 |
| 20260505065124 | 55 | 123 | 0.0 | 1.0 | 0.00 | 0.00 | 0.00 | 63 | 1007.2 |
| 20260505064621 | 55 | 132 | 0.0 | 1.0 | 0.00 | 0.00 | 0.00 | 65 | 1007.2 |
| 20260505064120 | 55 | 112 | 0.0 | 1.0 | 0.00 | 0.00 | 0.00 | 64 | 1007.2 |
| 20260505063617 | 55 | 94 | 1.0 | 1.0 | 0.00 | 0.00 | 0.00 | 64 | 1007.3 |
| 20260505063112 | 55 | 83 | 1.0 | 1.0 | 0.00 | 0.00 | 0.00 | 65 | 1007.4 |
| 20260505062609 | 55 | 116 | 1.0 | 1.0 | 0.00 | 0.00 | 0.00 | 64 | 1007.3 |
| 20260505062107 | 55 | 130 | 2.0 | 2.0 | 0.00 | 0.00 | 0.00 | 63 | 1007.5 |
| 20260505061604 | 56 | 112 | 0.0 | 1.0 | 0.00 | 0.00 | 0.00 | 62 | 1007.4 |
| 20260505061102 | 56 | 115 | 0.0 | 1.0 | 0.00 | 0.00 | 0.00 | 61 | 1007.4 |
| 20260505060559 | 56 | 115 | 0.0 | 1.0 | 0.00 | 0.00 | 0.00 | 63 | 1007.5 |
| 20260505060055 | 56 | 165 | 2.0 | 2.0 | 0.00 | 0.00 | 0.00 | 62 | 1007.5 |
| 20260505055551 | 55 | 132 | 1.0 | 2.0 | 0.00 | 0.00 | 0.00 | 63 | 1007.5 |
| 20260505055048 | 56 | 105 | 0.0 | 1.0 | 0.00 | 0.00 | 0.00 | 63 | 1007.7 |
| 20260505054545 | 56 | 141 | 0.0 | 1.0 | 0.00 | 0.00 | 0.00 | 61 | 1007.7 |
| 20260505054043 | 55 | 136 | 1.0 | 1.0 | 0.00 | 0.00 | 0.00 | 63 | 1007.8 |
| 20260505053540 | 56 | 159 | 1.0 | 1.0 | 0.00 | 0.00 | 0.00 | 61 | 1007.5 |
| 20260505053036 | 56 | 123 | 0.0 | 1.0 | 0.00 | 0.00 | 0.00 | 61 | 1007.5 |
| 20260505052533 | 56 | 110 | 0.0 | 1.0 | 0.00 | 0.00 | 0.00 | 61 | 1007.6 |
| 20260505052031 | 57 | 121 | 0.0 | 1.0 | 0.00 | 0.00 | 0.00 | 61 | 1007.5 |
| 20260505051527 | 57 | 128 | 0.0 | 1.0 | 0.00 | 0.00 | 0.00 | 60 | 1007.6 |
| 20260505051026 | 57 | 117 | 1.0 | 1.0 | 0.00 | 0.00 | 0.00 | 59 | 1007.5 |
| 20260505050524 | 57 | 110 | 0.0 | 2.0 | 0.00 | 0.00 | 0.00 | 60 | 1007.7 |
| 20260505041446 | 58 | 119 | 1.0 | 1.0 | 0.00 | 0.00 | 0.00 | 57 | 1007.6 |
| 20260505040943 | 58 | 127 | 0.0 | 1.0 | 0.00 | 0.00 | 0.00 | 57 | 1007.3 |
| 20260505040440 | 59 | 135 | 1.0 | 2.0 | 0.00 | 0.00 | 0.00 | 56 | 1007.4 |
| 20260505035937 | 58 | 113 | 0.0 | 2.0 | 0.00 | 0.00 | 0.00 | 56 | 1007.3 |
| 20260505035433 | 58 | 104 | 0.0 | 1.0 | 0.00 | 0.00 | 0.00 | 56 | 1007.3 |
| 20260505034931 | 58 | 124 | 0.0 | 2.0 | 0.00 | 0.00 | 0.00 | 56 | 1007.3 |
| 20260505034427 | 58 | 93 | 0.0 | 1.0 | 0.00 | 0.00 | 0.00 | 56 | 1007.4 |
| 20260505033924 | 58 | 111 | 0.0 | 1.0 | 0.00 | 0.00 | 0.00 | 55 | 1007.3 |
| 20260505033420 | 59 | 114 | 0.0 | 1.0 | 0.00 | 0.00 | 0.00 | 53 | 1007.6 |
| 20260505032919 | 59 | 111 | 0.0 | 1.0 | 0.00 | 0.00 | 0.00 | 54 | 1007.4 |
| 20260505032416 | 59 | 225 | 1.0 | 2.0 | 0.00 | 0.00 | 0.00 | 53 | 1007.4 |
| 20260505031912 | 59 | 101 | 1.0 | 1.0 | 0.00 | 0.00 | 0.00 | 54 | 1007.6 |
| 20260505031409 | 59 | 130 | 1.0 | 1.0 | 0.00 | 0.00 | 0.00 | 53 | 1007.5 |
| 20260505030906 | 59 | 121 | 1.0 | 2.0 | 0.00 | 0.00 | 0.00 | 56 | 1007.5 |
| 20260505030402 | 58 | 121 | 0.0 | 1.0 | 0.00 | 0.00 | 0.00 | 56 | 1007.8 |
| 20260505025857 | 59 | 138 | 0.0 | 1.0 | 0.00 | 0.00 | 0.00 | 55 | 1007.8 |
| 20260505025355 | 59 | 126 | 0.0 | 1.0 | 0.00 | 0.00 | 0.00 | 55 | 1007.8 |
| 20260505024854 | 59 | 135 | 0.0 | 1.0 | 0.00 | 0.00 | 0.00 | 55 | 1008.0 |
| 20260505024351 | 59 | 126 | 1.0 | 1.0 | 0.00 | 0.00 | 0.00 | 55 | 1007.7 |
| 20260505023848 | 59 | 108 | 0.0 | 1.0 | 0.00 | 0.00 | 0.00 | 54 | 1007.8 |
| 20260505023345 | 59 | 147 | 1.0 | 2.0 | 0.00 | 0.00 | 0.00 | 52 | 1007.8 |
| 20260505022842 | 60 | 128 | 0.0 | 1.0 | 0.00 | 0.00 | 0.00 | 53 | 1007.8 |
| 20260505022339 | 60 | 134 | 0.0 | 1.0 | 0.00 | 0.00 | 0.00 | 52 | 1007.8 |
| 20260505021836 | 59 | 128 | 0.0 | 2.0 | 0.00 | 0.00 | 0.00 | 52 | 1008.0 |
| 20260505021333 | 60 | 116 | 0.0 | 1.0 | 0.00 | 0.00 | 0.00 | 52 | 1008.0 |
| 20260505020829 | 60 | 103 | 0.0 | 1.0 | 0.00 | 0.00 | 0.00 | 51 | 1007.8 |
| 20260505020324 | 60 | 133 | 1.0 | 1.0 | 0.00 | 0.00 | 0.00 | 52 | 1007.8 |
| 20260505015821 | 60 | 152 | 0.0 | 2.0 | 0.00 | 0.00 | 0.00 | 51 | 1007.8 |
| 20260505015319 | 60 | 115 | 0.0 | 1.0 | 0.00 | 0.00 | 0.00 | 52 | 1008.0 |
| 20260505014816 | 60 | 128 | 0.0 | 1.0 | 0.00 | 0.00 | 0.00 | 52 | 1007.7 |
| 20260505014313 | 60 | 107 | 1.0 | 1.0 | 0.00 | 0.00 | 0.00 | 52 | 1007.8 |